679  
ASUS45 KREV 131410  
RWRNV  
NEVADA REGIONAL WEATHER ROUNDUP  
NATIONAL WEATHER SERVICE RENO NV  
700 AM PDT SAT APR 13 2024  
 
NOTE: "FAIR" INDICATES FEW OR NO CLOUDS BELOW 12,000 FEET WITH NO  
SIGNIFICANT WEATHER AND/OR S TO VISIBILITY
.  
 
NVZ001-003-004-131500-  
WESTERN NEVADA  
 
CITY SKY/WX TMP DP RH WIND PRES REMARKS
 
RENO PTCLDY 46 29 51 W5 29.78R TC 8  
CARSON CITY CLEAR 36 30 80 CALM 29.81R TC 2  
MINDEN CLEAR 28 25 86 CALM 29.79S TC -2  
SLIDE MTN N/A 32 25 74 W5 N/A TC 0  
PYRAMID LAKE N/A 54 N/A N/A S2 N/A TC 12  
FALLON CLEAR 53 23 31 S12 29.76R TC 12  
LOVELOCK CLEAR 33 27 78 CALM 29.79R TC 1  
HAWTHORNE CLEAR 50 16 25 SE14 29.80R TC 10  

 
 
NVZ002-CAZ072-073-131500-  
NORTHERN AND CENTRAL SIERRA  
 
CITY SKY/WX TMP DP RH WIND PRES REMARKS
 
S. LAKE TAHOE CLEAR 35 25 66 SW8 29.82R TC 2  
TRUCKEE PTCLDY 28 27 93 CALM 29.83R TC -2  
BLUE CANYON CLOUDY 38 36 92 S8 29.86S FOG TC 3  
SUSANVILLE CLOUDY 48 36 61 NW9 29.78S TC 9  
MAMMOTH LAKES CLEAR 27 21 78 N6 29.89S TC -3  
BRIDGEPORT N/A 37 21 52 S7 N/A TC 3  

 
 
NVZ030-031-036-131500-  
NORTHERN NEVADA  
 
CITY SKY/WX TMP DP RH WIND PRES REMARKS
 
ELKO CLEAR 41 28 60 E10 29.93R TC 5  
WINNEMUCCA CLEAR 39 33 79 SE6 29.82R TC 4  
BATTLE MOUNTAI CLEAR 37 32 81 CALM 29.87R TC 3  
WENDOVER MOSUNNY 53 27 36 NE9 29.95R TC 12  

 
 
NVZ035-037-131500-  
CENTRAL NEVADA  
 
CITY SKY/WX TMP DP RH WIND PRES REMARKS
 
ELY PTCLDY 39 23 52 S10 30.02R TC 4  
EUREKA N/A 50 25 37 S8 29.94R TC 10  

 
 
NVZ013-014-131500-  
SOUTH CENTRAL NEVADA  
 
CITY SKY/WX TMP DP RH WIND PRES REMARKS
 
TONOPAH CLEAR 47 26 44 SE13 29.94R TC 8  

 
 
NVZ017-020-022-131500-  
SOUTHERN NEVADA  
 
CITY SKY/WX TMP DP RH WIND PRES REMARKS
 
LAS VEGAS CLEAR 62 28 27 S7 29.93R TC 17  
N. LAS VEGAS CLEAR 63 29 27 E5 29.93R TC 17  
NELLIS AFB CLEAR 66 24 20 S3 29.91R TC 19  
HENDERSON CLEAR 62 28 27 SW14 29.96R TC 17  
MERCURY CLEAR 54 31 41 CALM 29.92R TC 12  

 
 
 
CLICK HERE TO GO TO PREVIOUS BULLETINS.

The Nexlab NV Page Main Text Page